STARLINK-32744 (62509 NORAD) Tracking and Keplerian Element Data

This shows tracking and keplerian element data for the satellite.

Feedback or suggestion? Click here.




ElementValue
Catalog62509
NameSTARLINK-32744
Epoch Orbit553
Epoch Day35.04006558
Epoch Year2025
RAAN24.6275
Inclination43.0016
Eccentricity0.0001807
Argument of Perigee223.3722
Mean Anonmoly136.6992
Mean Motion15.40699857
Decay Rate8.7E-07
L11 62509U 25003Y 25035.04006558 .00000087 00000+0 93594-5 0 9994
L22 62509 43.0016 24.6275 0001807 223.3722 136.6992 15.40699857 5534



Live tracking and technical data element details for STARLINK-32744 (NORAD 62509). STARLINK-32744 can be tracked NOW for your location showing map with azimuth and elevation plus other details from your city location.







IsCatalogInMostPopularTable: catalog: 62509, numindb: 12
Update: records affected: 1



GetName: 62509 STARLINK-32744

Hit Count: updated at: Sun, 18 May 2025 23:17:33 GMT